Weather reports worldwide

Advertisment
Quincy, il, United States of America (2074050): temperature & dewpoint: 17.07.2019 03:00:00 - 23.07.2019 03:00:00 (CDT)Quincy, il, United States of America (2074050): wind speed & gusts: 17.07.2019 03:00:00 - 23.07.2019 03:00:00 (CDT)Quincy, il, United States of America (2074050): wind direction: 17.07.2019 03:00:00 - 23.07.2019 03:00:00 (CDT)Quincy, il, United States of America (2074050): reduced air pressure: 17.07.2019 03:00:00 - 23.07.2019 03:00:00 (CDT)Quincy, il, United States of America (2074050): visibility: 17.07.2019 03:00:00 - 23.07.2019 03:00:00 (CDT)Quincy, il, United States of America (2074050): precipitation: 17.07.2019 03:00:00 - 23.07.2019 03:00:00 (CDT)
Date & Time tt [°C] td [°C] ff [km/h] ff [kn] fx [km/h] fx [kn] dd ppp [hPa] vv [km] rr [mm]
23.07.2019 03:00:00 16,7 13,3 9 5 - - N 1021,2 16 -
23.07.2019 02:00:00 17,8 13,9 13 7 - - N 1020,8 16 -
23.07.2019 01:00:00 17,8 14,4 9 5 - - N 1020,6 16 -
23.07.2019 00:00:00 17,8 15,0 9 5 - - N 1020,4 16 -
22.07.2019 23:00:00 19,4 15,0 13 7 - - N 1019,9 16 -
22.07.2019 22:00:00 20,0 15,0 9 5 - - N 1019,6 16 -
22.07.2019 21:00:00 20,6 15,6 9 5 - - NNE 1019,0 16 -
22.07.2019 20:00:00 23,9 15,0 15 8 - - NNE 1018,5 16 -
22.07.2019 19:00:00 25,6 15,6 21 11 - - N 1018,0 16 -
22.07.2019 18:00:00 26,7 16,1 22 12 - - NNE 1017,8 16 -
22.07.2019 17:00:00 27,2 15,6 22 12 - - N 1017,5 16 -
22.07.2019 16:00:00 27,2 16,1 18 10 - - N 1017,6 16 -
22.07.2019 15:00:00 26,7 16,1 24 13 - - N 1017,8 16 -
22.07.2019 14:00:00 27,8 16,7 18 10 - - N 1017,6 16 -
22.07.2019 13:00:00 27,2 17,2 21 11 - - N 1017,5 16 -
22.07.2019 12:00:00 27,2 17,2 22 12 - - NNE 1017,3 16 -
22.07.2019 11:00:00 25,6 16,7 22 12 - - N - 16 -
22.07.2019 10:00:00 23,3 17,2 16 9 - - N 1017,1 16 -
22.07.2019 09:00:00 22,2 17,8 16 9 - - N 1017,2 16 -
22.07.2019 08:00:00 20,0 17,8 13 7 - - N 1017,1 16 -
22.07.2019 07:00:00 20,0 18,3 13 7 - - NNW 1016,5 16 -
22.07.2019 06:00:00 20,0 18,3 8 4 - - NNW 1016,1 16 -
22.07.2019 05:00:00 20,6 17,8 9 5 - - NNE 1015,4 16 0,0
22.07.2019 04:00:00 20,6 17,8 11 6 - - NE 1015,3 16 0,8
22.07.2019 03:00:00 20,0 18,3 9 5 - - NE 1015,6 15 1,3
22.07.2019 02:00:00 20,6 18,9 13 7 - - NE 1015,3 6 1,5
22.07.2019 01:00:00 21,7 18,9 29 16 - - NE 1014,7 16 0,0
22.07.2019 00:00:00 23,9 21,1 18 10 - - NNE 1014,3 16 0,0
21.07.2019 23:00:00 - - - - - - - - - -
21.07.2019 22:00:00 25,0 21,1 16 9 - - N 1014,4 16 0,0
21.07.2019 21:00:00 25,0 21,1 18 10 - - N 1013,8 16 0,0
21.07.2019 20:00:00 26,7 21,7 15 8 - - N 1013,2 16 0,0
21.07.2019 19:00:00 27,8 20,6 16 9 - - NNW 1013,3 16 -
21.07.2019 18:00:00 30,0 21,1 13 7 - - N 1013,1 16 -
21.07.2019 17:00:00 29,4 20,6 16 9 - - NW 1012,7 16 -
21.07.2019 16:00:00 30,0 20,6 15 8 - - WNW 1012,4 16 -
21.07.2019 15:00:00 30,6 20,6 15 8 - - W 1012,8 16 -
21.07.2019 14:00:00 30,0 20,0 16 9 - - W 1013,2 16 -
21.07.2019 13:00:00 28,9 20,0 16 9 - - WNW 1013,9 16 -
21.07.2019 12:00:00 27,8 20,6 11 6 - - WSW 1014,0 16 -
21.07.2019 11:00:00 27,2 20,6 24 13 - - W 1014,6 16 -
21.07.2019 10:00:00 25,6 20,6 15 8 - - NW 1014,5 16 -
21.07.2019 09:00:00 25,0 20,0 11 6 - - NW 1014,4 16 -
21.07.2019 08:00:00 24,4 20,0 9 5 - - NNW 1013,5 16 -
21.07.2019 07:00:00 23,3 20,6 5 3 - - NNE 1012,9 16 -
21.07.2019 06:00:00 23,3 20,0 11 6 - - NNW 1012,2 16 -
21.07.2019 05:00:00 23,3 21,1 22 12 - - NNW 1012,2 16 -
21.07.2019 04:00:00 23,9 21,1 29 16 61 33 NNW 1011,2 16 0,0
21.07.2019 03:00:00 27,2 16,1 37 20 61 33 NW 1008,7 16 0,0
21.07.2019 02:00:00 24,4 17,8 31 17 - - S 1008,2 16 1,0
21.07.2019 01:00:00 23,3 19,4 16 9 - - W 1012,4 16 1,3
21.07.2019 00:00:00 23,9 20,6 9 5 - - WSW 1013,3 16 0,0
20.07.2019 23:00:00 22,8 20,6 21 11 68 37 WNW 1013,4 16 0,0
20.07.2019 22:00:00 25,0 18,3 29 16 68 37 NNW 1012,3 16 -
20.07.2019 21:00:00 29,4 24,4 9 5 - - SSE 1010,7 16 -
20.07.2019 20:00:00 31,1 23,3 5 3 - - S 1010,1 16 -
20.07.2019 19:00:00 32,8 22,8 16 9 - - S 1009,2 16 -
20.07.2019 18:00:00 33,3 22,8 16 9 - - S 1009,7 16 -
20.07.2019 17:00:00 33,9 22,2 18 10 - - S 1010,0 16 -
20.07.2019 16:00:00 34,4 22,8 18 10 - - SSW 1009,8 16 -
20.07.2019 15:00:00 33,9 22,2 18 10 - - SSW 1011,1 16 -
20.07.2019 14:00:00 33,9 22,8 21 11 - - SSW 1010,8 16 -
20.07.2019 13:00:00 33,3 23,3 18 10 - - SSW 1011,2 16 -
20.07.2019 12:00:00 32,2 23,3 18 10 - - SSW 1011,4 16 -
20.07.2019 11:00:00 31,1 23,3 24 13 - - SSW 1011,4 16 -
20.07.2019 10:00:00 29,4 22,8 28 15 - - SSW 1010,9 16 -
20.07.2019 09:00:00 28,9 22,8 22 12 - - SSW 1011,1 16 -
20.07.2019 08:00:00 27,2 22,2 16 9 - - SW 1011,5 16 -
20.07.2019 07:00:00 26,1 22,2 13 7 - - S 1011,8 16 -
20.07.2019 06:00:00 25,6 22,2 16 9 - - SSW 1011,7 16 -
20.07.2019 05:00:00 26,1 22,2 18 10 - - SSW 1011,2 16 -
20.07.2019 04:00:00 26,7 22,8 13 7 - - SSW 1011,1 16 -
20.07.2019 03:00:00 27,2 22,8 16 9 - - SSW 1010,8 16 -
20.07.2019 02:00:00 27,8 23,3 22 12 - - SSW 1011,0 16 -
20.07.2019 01:00:00 27,8 23,3 15 8 - - S 1010,9 16 -
20.07.2019 00:00:00 28,3 23,9 15 8 - - S 1010,4 16 -
19.07.2019 23:00:00 28,9 23,9 15 8 - - S 1009,9 16 -
19.07.2019 22:00:00 29,4 24,4 16 9 - - S 1009,0 16 -
19.07.2019 21:00:00 30,0 24,4 16 9 - - S 1008,7 16 -
19.07.2019 20:00:00 31,1 24,4 16 9 - - S 1008,6 16 -
19.07.2019 19:00:00 32,8 24,4 22 12 - - S 1008,9 16 -
19.07.2019 18:00:00 33,3 24,4 22 12 - - S 1009,0 16 -
19.07.2019 17:00:00 33,9 25,0 24 13 - - S 1009,4 16 -
19.07.2019 16:00:00 33,9 25,0 22 12 - - S 1009,7 16 -
19.07.2019 15:00:00 34,4 25,0 22 12 - - SSW 1010,3 16 -
19.07.2019 14:00:00 33,9 24,4 24 13 - - SSW 1010,5 16 -
19.07.2019 13:00:00 33,3 23,9 22 12 - - S 1011,0 16 -
19.07.2019 12:00:00 32,2 23,9 24 13 - - SSW 1011,0 16 -
19.07.2019 11:00:00 31,1 23,3 22 12 - - SW 1010,8 16 -
19.07.2019 10:00:00 30,0 22,8 22 12 - - SW 1011,0 16 -
19.07.2019 09:00:00 28,3 22,8 18 10 - - SW 1011,3 16 -
19.07.2019 08:00:00 27,2 22,2 21 11 - - SSW 1011,0 16 -
19.07.2019 07:00:00 25,6 21,7 16 9 - - SSW 1010,6 16 -
19.07.2019 06:00:00 25,0 21,7 13 7 - - SSW 1010,1 16 -
19.07.2019 05:00:00 25,0 21,7 13 7 - - S 1009,7 16 -
19.07.2019 04:00:00 25,6 21,7 15 8 - - SSW 1009,3 16 -
19.07.2019 03:00:00 26,7 21,7 18 10 - - SSW 1009,0 16 -
19.07.2019 02:00:00 27,2 22,2 18 10 - - SW 1009,2 16 -
19.07.2019 01:00:00 27,8 22,8 18 10 - - SSW 1009,5 16 -
19.07.2019 00:00:00 28,3 23,3 18 10 - - SSW 1009,6 16 -
18.07.2019 23:00:00 28,9 23,9 15 8 - - S 1009,4 16 -
18.07.2019 22:00:00 29,4 24,4 15 8 - - S 1009,1 16 -
18.07.2019 21:00:00 30,6 23,9 15 8 - - S 1008,4 16 -
18.07.2019 20:00:00 31,7 24,4 16 9 - - S 1007,8 16 -
18.07.2019 19:00:00 32,2 24,4 22 12 - - S 1007,6 16 -
18.07.2019 18:00:00 33,3 24,4 26 14 - - S 1007,9 16 -
18.07.2019 17:00:00 33,3 25,0 24 13 - - S 1008,4 16 -
18.07.2019 16:00:00 33,9 25,0 24 13 - - S 1008,6 16 -
18.07.2019 15:00:00 33,3 24,4 29 16 - - S 1008,9 16 -
18.07.2019 14:00:00 32,8 24,4 15 8 - - S 1009,5 16 -
18.07.2019 13:00:00 32,2 23,9 22 12 - - S 1010,0 16 -
18.07.2019 12:00:00 31,7 23,9 24 13 - - SW 1010,6 16 -
18.07.2019 11:00:00 29,4 23,3 18 10 - - SSW 1011,0 16 -
18.07.2019 10:00:00 28,3 22,8 21 11 - - SSW 1010,7 16 -
18.07.2019 09:00:00 26,1 21,7 22 12 - - SSW 1010,7 16 -
18.07.2019 08:00:00 25,0 21,1 24 13 - - SSW 1010,8 16 -
18.07.2019 07:00:00 23,9 20,6 22 12 - - SSW 1010,7 16 -
18.07.2019 06:00:00 23,3 20,0 21 11 - - SSW 1011,0 16 -
18.07.2019 05:00:00 23,3 20,0 18 10 - - SSW 1010,9 16 -
18.07.2019 04:00:00 22,8 19,4 21 11 - - SSW 1011,1 16 -
18.07.2019 03:00:00 22,2 19,4 18 10 - - SSW 1010,9 16 -
18.07.2019 02:00:00 22,2 19,4 21 11 - - SSW 1011,6 16 -
18.07.2019 01:00:00 22,2 19,4 16 9 - - S 1011,7 16 -
18.07.2019 00:00:00 22,8 19,4 16 9 - - S 1011,7 16 -
17.07.2019 23:00:00 22,8 19,4 21 11 - - S 1012,2 16 -
17.07.2019 22:00:00 22,2 20,0 16 9 - - S 1012,1 16 -
17.07.2019 21:00:00 22,8 20,0 21 11 - - S 1011,6 16 -
17.07.2019 20:00:00 22,2 20,0 18 10 - - S 1012,4 16 -
17.07.2019 19:00:00 21,1 20,0 13 7 - - S 1012,3 16 -
17.07.2019 18:00:00 21,7 20,0 11 6 - - SSE 1013,0 16 0,0
17.07.2019 17:00:00 21,7 19,4 5 3 - - SSE 1014,6 16 5,3
17.07.2019 16:00:00 20,6 19,4 13 7 70 38 N 1016,4 4,8 4,1
17.07.2019 15:00:00 - - - - - - - - - -
17.07.2019 14:00:00 32,8 22,2 15 8 - - SSE 1012,5 16 -
17.07.2019 13:00:00 31,1 21,7 11 6 - - S 1013,5 16 -
17.07.2019 12:00:00 - - - - - - - - - -
17.07.2019 11:00:00 - - - - - - - - - -
17.07.2019 10:00:00 - - - - - - - - - -
17.07.2019 09:00:00 - - - - - - - - - -
17.07.2019 08:00:00 - - - - - - - - - -
17.07.2019 07:00:00 - - - - - - - - - -
17.07.2019 06:00:00 - - - - - - - - - -
17.07.2019 05:00:00 - - - - - - - - - -
17.07.2019 04:00:00 - - - - - - - - - -
17.07.2019 03:00:00 - - - - - - - - - -

tt = temperature
td = dewpoint
ff = wind speed
fx = gusts
dd = wind direction
ppp = reduced air pressure
vv = visibility
rr = precipitation

Next stations